Location: *
(40.7190°N, 4.2480°W)
Time: 14:45:39
(UTC+00:00)

H-2A R/B - Pass Details

Date: 18 February 2020
Orbit: 503 x 540 km, 97.3° (Epoch: 28 February)

Event Time Altitude Azimuth Distance (km) Brightness Sun altitude
Rises 06:18:32 0° 14° (NNE) 2,642 6.4 -10.0°
Reaches altitude 10° 06:20:39 10° 17° (NNE) 1,744 5.5 -9.6°
Maximum altitude 06:24:24 69° 101° (E) 547 3.0 -8.9°
Drops below altitude 10° 06:28:04 10° 185° (S) 1,713 5.4 -8.2°
Sets 06:30:09 0° 188° (S) 2,590 6.3 -7.8°
